[[{"header":{"parameterUnit":"m.s-1","parameterCategory":1,"la1":30.2991,"la2":30.254,"lo1":-89.0895,"lo2":-89.0444,"dy":0.0017,"dx":0.0017,"nx":28,"ny":28,"refTime":"2024-10-14T09:00:00:Z","depth":0,"parameterNumber":2,"parameterNumberName":"U-component_of_WINDS"},"data":[0,0,0,0,0,0,0,0,0,0,0,0,0,0,0,0,0,0,0,0,0,0,0,0,0,0,0,0,0,0,0,0,0,0,0,0,0,0,0,0,0,0,0,0,0,0,0,0,0,0,0,0,0,0,0,0,0,0,3.503,3.5031,0,3.5132,3.5134,3.5135,3.5122,3.512,3.5119,3.5117,3.5221,3.5226,3.523,0,0,0,0,0,0,0,0,0,0,0,0,0,3.4825,3.4828,3.503,3.5031,3.5033,3.5132,3.5134,3.5135,3.5122,3.512,3.5118,3.5116,3.522,3.5225,3.523,0,0,0,0,0,0,0,0,0,0,0,0,0,3.4919,3.483,3.503,3.5038,3.504,3.5132,3.5134,3.5135,3.5123,3.512,3.5118,3.5115,3.5218,3.5225,3.5231,3.5321,0,0,3.5251,3.5254,0,0,0,0,0,0,0,0,3.4914,3.4927,3.5036,3.5038,3.504,3.5112,3.5099,3.5198,3.5123,3.5091,3.5117,3.5114,3.5187,3.5196,3.522,3.5326,3.533,3.5251,3.5255,3.5258,3.526,0,0,0,0,0,0,0,3.4907,3.4922,3.507,3.5037,3.504,3.5037,3.5048,3.5118,3.5152,3.5094,3.5093,3.5105,3.5188,3.5214,3.5223,3.5332,3.5251,3.5257,3.5261,3.5263,3.5518,3.5521,0,0,0,0,0,0,3.4898,3.4917,3.5067,3.5074,3.4969,3.5043,3.5055,3.5091,3.5151,3.5158,3.5107,3.5104,3.5204,3.5215,3.5226,3.5337,3.5258,3.5264,3.5268,3.5515,3.5519,3.5522,0,0,0,0,0,0,3.4894,3.4912,3.5063,3.4995,3.5014,3.5049,3.509,3.5095,3.5121,3.5161,3.5167,3.5128,3.5203,3.5217,3.5298,3.534,3.5267,3.5273,3.5512,3.5516,3.552,3.5558,0,0,0,0,0,0,3.4888,3.491,3.4945,3.4996,3.5018,3.5133,3.5093,3.5098,3.5132,3.513,3.5183,3.5189,3.5202,3.5288,3.5304,3.5348,3.5278,3.5508,3.5514,3.5519,3.5553,3.5563,3.5571,0,0,0,0,0,3.4881,3.495,3.4946,3.4965,3.5061,3.5135,3.5148,3.5161,3.5136,3.5171,3.5197,3.5187,3.5333,3.5297,3.5315,3.5361,3.5506,3.5512,3.5519,3.5549,3.5561,3.5571,0,0,0,0,0,0,3.4902,3.4957,3.4953,3.5041,3.5084,3.5133,3.5177,3.5173,3.5224,3.5219,3.5234,3.5246,3.5328,3.5352,3.5311,3.5452,3.5416,3.5426,3.5433,3.5444,3.5453,3.5446,3.5283,0,0,0,0,0,3.4918,3.4973,3.5018,3.5091,3.5113,3.5142,3.5174,3.5181,3.5226,3.5243,3.5275,3.5319,3.5375,3.5411,3.5464,3.5557,3.5569,3.5597,3.5606,3.5614,3.5622,3.5675,3.5688,3.5543,3.5543,3.5543,0,0,3.4949,3.4986,3.502,3.5097,3.513,3.5188,3.5157,3.5218,3.5261,3.5253,3.5331,3.5356,3.5406,3.5493,3.5533,3.5516,3.5665,3.5622,3.5628,3.5632,3.5683,3.5696,3.5709,3.5548,3.5547,3.5546,0,0,3.5036,3.5069,3.5135,3.517,3.5221,3.524,3.5256,3.5306,3.5323,3.5402,3.5397,3.5449,3.5544,3.558,3.5611,3.5715,3.5708,3.5732,3.5779,3.583,3.5842,3.5852,3.589,3.5903,3.574,3.574,3.574,0,3.5068,3.5155,3.5169,3.5232,3.5266,3.5262,3.5329,3.5362,3.5429,3.5453,3.5433,3.5554,3.5587,3.5684,3.5709,3.5734,3.5753,3.5725,3.5839,3.5849,3.5859,3.5895,3.5909,3.5743,3.5743,3.5742,3.5742,0,3.5193,3.5253,3.53,3.5365,3.5405,3.5469,3.5494,3.5533,3.5537,3.5558,3.564,3.568,3.5742,3.5766,3.577,3.5863,3.5851,3.5835,3.5799,3.5875,3.5909,3.5923,3.5747,3.5746,3.5745,3.5744,0,0,3.5294,3.5368,3.5385,3.5415,3.5473,3.552,3.5585,3.5647,3.568,3.5727,3.5782,3.5865,3.5851,3.5886,3.5894,3.5939,3.602,3.5917,3.5919,3.5936,3.6127,3.6139,3.6154,3.6016,3.6019,3.6021,3.6123,0,3.5387,3.5503,3.5518,3.5621,3.5677,3.5675,3.5732,3.5774,3.5797,3.5848,3.5872,3.5931,3.5907,3.5929,3.5973,3.6,3.6058,3.5993,3.6068,3.6071,3.6056,3.6172,3.6184,3.6278,3.6136,3.6138,3.614,0,3.5511,3.5562,3.567,3.5722,3.5746,3.5797,3.5856,3.5905,3.5953,3.5966,3.6007,3.601,3.6079,3.6041,3.6136,3.6092,3.6123,3.6142,3.6146,3.6153,3.611,3.6183,3.6309,3.6323,3.6161,3.6159,3.6158,0,3.5575,3.5671,3.5748,3.5774,3.5836,3.5872,3.59,3.5946,3.5983,3.6034,3.6058,3.6117,3.6149,3.6195,3.6214,3.6185,3.6309,3.6272,3.6322,3.6322,3.6348,3.6346,3.6481,3.6369,3.6368,3.6368,3.6368,0,3.5677,3.5743,3.5778,3.5826,3.5901,3.5919,3.5992,3.6019,3.606,3.6113,3.6115,3.6165,3.6189,3.6243,3.6259,3.6336,3.635,3.6363,3.6367,3.6363,3.6362,3.6384,3.6378,3.6372,3.6371,3.637,3.637,0,3.5761,3.5787,3.5871,3.5924,3.5939,3.5992,3.6037,3.6084,3.6106,3.6174,3.6191,3.6226,3.629,3.6315,3.6393,3.6404,3.6493,3.6491,3.6477,3.6478,3.6527,3.6522,3.6681,3.6703,3.6576,3.6577,3.6578,0,3.5824,3.5876,3.5934,3.5971,3.6,3.6058,3.6095,3.6116,3.6155,3.6215,3.6255,3.6319,3.6371,3.6473,3.6506,3.6566,3.6566,3.6618,3.6575,3.6571,3.6568,3.6565,3.657,3.6626,3.6627,3.6628,3.6629,0,3.5934,3.5945,3.6,3.6059,3.6105,3.6152,3.6199,3.6229,3.6256,3.63,3.6366,3.6407,3.6487,3.6551,3.6613,3.6642,3.6641,3.6642,3.6657,3.6654,3.6644,3.6651,3.6499,3.6638,3.6637,3.6637,3.6636,3.6636,3.6011,3.6057,3.6106,3.6167,3.6204,3.6248,3.6295,3.6324,3.6379,3.6447,3.6455,3.6526,3.6575,3.6659,3.6691,3.6747,3.6733,3.6755,3.676,3.6765,3.6769,3.6635,3.6758,3.6758,3.6758,3.6758,3.6757,0,3.6121,3.6153,3.6209,3.6275,3.6324,3.6319,3.637,3.6411,3.6474,3.6519,3.6571,3.6648,3.671,3.6749,3.6812,3.685,3.6851,3.6866,3.6863,3.687,3.6777,3.6758,3.6864,3.6864,3.6864,3.6864,3.6864,3.6864,3.6185,3.6263,3.628,3.6377,3.6409,3.6478,3.6509,3.655,3.6586,3.6672,3.6724,3.6749,3.6793,3.6859,3.6917,3.6927,3.695,3.6966,3.6975,3.6887,3.6876,3.6866,3.6848,3.6971,3.6971,3.7063,3.7064,3.7065]},{"header":{"parameterUnit":"m.s-1","parameterCategory":1,"la1":30.2991,"la2":30.254,"lo1":-89.0895,"lo2":-89.0444,"dy":0.0017,"dx":0.0017,"nx":28,"ny":28,"refTime":"2024-10-14T09:00:00:Z","depth":0,"parameterNumber":3,"parameterNumberName":"V-component_of_WINDS"},"data":[0,0,0,0,0,0,0,0,0,0,0,0,0,0,0,0,0,0,0,0,0,0,0,0,0,0,0,0,0,0,0,0,0,0,0,0,0,0,0,0,0,0,0,0,0,0,0,0,0,0,0,0,0,0,0,0,0,0,-1.4267,-1.4268,0,-1.4356,-1.4357,-1.4358,-1.4397,-1.4397,-1.4396,-1.4396,-1.4486,-1.4488,-1.4491,0,0,0,0,0,0,0,0,0,0,0,0,0,-1.4133,-1.4136,-1.4267,-1.4268,-1.427,-1.4356,-1.4357,-1.4358,-1.4397,-1.4397,-1.4396,-1.4396,-1.4485,-1.4488,-1.4491,0,0,0,0,0,0,0,0,0,0,0,0,0,-1.4203,-1.4136,-1.4267,-1.4299,-1.4303,-1.4355,-1.4357,-1.4358,-1.4397,-1.4397,-1.4396,-1.4396,-1.4484,-1.4488,-1.4492,-1.4518,0,0,-1.4503,-1.4505,0,0,0,0,0,0,0,0,-1.4199,-1.4208,-1.4294,-1.4297,-1.4302,-1.4365,-1.4342,-1.4412,-1.4397,-1.4361,-1.4396,-1.4396,-1.4446,-1.4453,-1.447,-1.4522,-1.4526,-1.4503,-1.4506,-1.4507,-1.4508,0,0,0,0,0,0,0,-1.4194,-1.4205,-1.4302,-1.4295,-1.43,-1.431,-1.4319,-1.4356,-1.4403,-1.4364,-1.4367,-1.4377,-1.4448,-1.4466,-1.4472,-1.4527,-1.4503,-1.4506,-1.4509,-1.451,-1.4609,-1.4609,0,0,0,0,0,0,-1.4184,-1.42,-1.43,-1.4305,-1.4249,-1.4312,-1.4323,-1.4345,-1.4403,-1.4412,-1.4377,-1.4379,-1.446,-1.4468,-1.4475,-1.4512,-1.4507,-1.4511,-1.4513,-1.4608,-1.4609,-1.4609,0,0,0,0,0,0,-1.4181,-1.4193,-1.4296,-1.4254,-1.4268,-1.4315,-1.4339,-1.4347,-1.4365,-1.4413,-1.4422,-1.4387,-1.446,-1.447,-1.4508,-1.4515,-1.4512,-1.4516,-1.4608,-1.4609,-1.4609,-1.4584,0,0,0,0,0,0,-1.4177,-1.4191,-1.4202,-1.4254,-1.427,-1.4326,-1.4339,-1.4348,-1.4371,-1.4374,-1.4424,-1.4432,-1.446,-1.4502,-1.4511,-1.452,-1.4519,-1.4607,-1.4608,-1.4609,-1.4584,-1.4583,-1.4582,0,0,0,0,0,-1.4172,-1.419,-1.4202,-1.4214,-1.4283,-1.4327,-1.4336,-1.4368,-1.4371,-1.4382,-1.4414,-1.4431,-1.4513,-1.4505,-1.4516,-1.4527,-1.4607,-1.4608,-1.4609,-1.4584,-1.4583,-1.4582,0,0,0,0,0,0,-1.4137,-1.4198,-1.4211,-1.4246,-1.4281,-1.4333,-1.4348,-1.4366,-1.44,-1.4401,-1.4439,-1.4451,-1.4485,-1.451,-1.45,-1.4557,-1.4562,-1.4565,-1.4539,-1.4539,-1.4538,-1.4531,-1.4522,0,0,0,0,0,-1.4134,-1.4164,-1.4215,-1.4241,-1.4258,-1.43,-1.432,-1.4342,-1.438,-1.4394,-1.4428,-1.4464,-1.4499,-1.452,-1.4554,-1.4588,-1.46,-1.4601,-1.46,-1.4599,-1.4601,-1.4623,-1.4624,-1.4612,-1.4612,-1.4612,0,0,-1.4126,-1.4163,-1.418,-1.4235,-1.4265,-1.4296,-1.4312,-1.4343,-1.4367,-1.4399,-1.4437,-1.4464,-1.4506,-1.4543,-1.456,-1.4564,-1.4607,-1.46,-1.4599,-1.4602,-1.4624,-1.4625,-1.4626,-1.4613,-1.4612,-1.4612,0,0,-1.4129,-1.416,-1.4186,-1.4215,-1.426,-1.4289,-1.4295,-1.4345,-1.4364,-1.4403,-1.4428,-1.4457,-1.4514,-1.4544,-1.4567,-1.4583,-1.4601,-1.4593,-1.459,-1.461,-1.4611,-1.4612,-1.4619,-1.4621,-1.4595,-1.4595,-1.4595,0,-1.4114,-1.4162,-1.4196,-1.4227,-1.4252,-1.4283,-1.431,-1.4337,-1.4391,-1.4407,-1.4411,-1.4485,-1.4516,-1.4561,-1.4565,-1.4582,-1.4591,-1.4588,-1.4608,-1.461,-1.4611,-1.4618,-1.4621,-1.4594,-1.4594,-1.4595,-1.4595,0,-1.4142,-1.4175,-1.419,-1.4242,-1.4268,-1.4297,-1.4337,-1.4359,-1.4379,-1.4407,-1.4448,-1.4486,-1.4529,-1.4541,-1.4561,-1.459,-1.4591,-1.4601,-1.4607,-1.4611,-1.4618,-1.4621,-1.4593,-1.4593,-1.4593,-1.4594,0,0,-1.4123,-1.4196,-1.4201,-1.4226,-1.4279,-1.4305,-1.4336,-1.4379,-1.4398,-1.4434,-1.4462,-1.4511,-1.4521,-1.4547,-1.4571,-1.4589,-1.4601,-1.4597,-1.4599,-1.4597,-1.4637,-1.4629,-1.4631,-1.4613,-1.4614,-1.4614,-1.4633,0,-1.4134,-1.419,-1.4224,-1.4267,-1.4298,-1.433,-1.4357,-1.4393,-1.442,-1.4452,-1.4482,-1.4517,-1.4527,-1.4543,-1.4563,-1.4595,-1.461,-1.4594,-1.464,-1.4641,-1.4628,-1.4635,-1.4626,-1.4642,-1.4636,-1.4637,-1.4637,0,-1.4153,-1.419,-1.4236,-1.4288,-1.4302,-1.4326,-1.4369,-1.4398,-1.444,-1.4459,-1.4489,-1.4513,-1.4548,-1.4551,-1.4601,-1.459,-1.461,-1.4629,-1.4631,-1.4636,-1.4639,-1.4641,-1.4648,-1.4651,-1.4642,-1.4641,-1.4641,0,-1.4136,-1.4197,-1.4234,-1.4254,-1.4314,-1.4331,-1.4357,-1.4398,-1.4423,-1.4461,-1.4477,-1.4518,-1.454,-1.4572,-1.4607,-1.4606,-1.4653,-1.4659,-1.4671,-1.467,-1.4679,-1.4678,-1.469,-1.4691,-1.4691,-1.4691,-1.4691,0,-1.4144,-1.4171,-1.4227,-1.4249,-1.4282,-1.432,-1.4351,-1.438,-1.4417,-1.4446,-1.4476,-1.4502,-1.4547,-1.4579,-1.4607,-1.4644,-1.4654,-1.4671,-1.4678,-1.4668,-1.4666,-1.4682,-1.4682,-1.4692,-1.4692,-1.4692,-1.4692,0,-1.413,-1.4168,-1.421,-1.4265,-1.4279,-1.4301,-1.4348,-1.4371,-1.4401,-1.4437,-1.4448,-1.4495,-1.4535,-1.4573,-1.4626,-1.4645,-1.4683,-1.4692,-1.4669,-1.4673,-1.4682,-1.4681,-1.4705,-1.471,-1.4708,-1.4708,-1.4708,0,-1.4132,-1.4155,-1.4212,-1.4234,-1.426,-1.4294,-1.432,-1.4359,-1.4385,-1.4436,-1.4453,-1.4495,-1.4531,-1.4594,-1.4633,-1.4674,-1.4685,-1.4691,-1.4691,-1.4682,-1.4686,-1.4684,-1.4687,-1.469,-1.4689,-1.4689,-1.4689,0,-1.4134,-1.4152,-1.4188,-1.4231,-1.426,-1.4296,-1.4332,-1.4349,-1.4395,-1.4422,-1.4464,-1.4492,-1.4548,-1.459,-1.4636,-1.4663,-1.4684,-1.4689,-1.4694,-1.4684,-1.467,-1.4679,-1.4667,-1.4688,-1.4688,-1.4688,-1.4688,-1.4688,-1.4129,-1.415,-1.4195,-1.4234,-1.4266,-1.43,-1.4325,-1.4359,-1.4395,-1.4443,-1.4464,-1.4507,-1.455,-1.4615,-1.4642,-1.4677,-1.4681,-1.4688,-1.469,-1.4691,-1.469,-1.4665,-1.4685,-1.4685,-1.4685,-1.4685,-1.4685,0,-1.4132,-1.4163,-1.4198,-1.4249,-1.4281,-1.4298,-1.434,-1.4365,-1.4402,-1.4441,-1.4477,-1.4526,-1.4567,-1.461,-1.4655,-1.4674,-1.4685,-1.4684,-1.4683,-1.469,-1.4682,-1.4674,-1.4675,-1.4675,-1.4675,-1.4675,-1.4675,-1.4675,-1.4137,-1.4176,-1.42,-1.4255,-1.4286,-1.4328,-1.435,-1.4382,-1.4414,-1.4467,-1.4502,-1.453,-1.4571,-1.4619,-1.4659,-1.467,-1.4686,-1.4682,-1.4697,-1.4689,-1.469,-1.469,-1.4683,-1.4685,-1.4685,-1.4701,-1.4701,-1.4701]}]]